Regional Weather Roundup
Issued by NWS Charleston, SC

Current Version | Previous Version | Graphics & Text | Print | Product List | Glossary On
Versions: 1 2 3 4 5 6 7 8 9 10 11 12 13 14 15 16 17 18 19 20 21 22 23 24 25 26 27 28 29 30 31 32 33 34 35 36 37 38 39 40 41 42 43 44 45 46 47 48 49 50
000
ASUS42 KCHS 120828
RWRCHS

REGIONAL WEATHER ROUNDUP
NATIONAL WEATHER SERVICE CHARLESTON SC
300 AM EST FRI FEB 12 2016

NOTE: "FAIR" INDICATES FEW OR NO CLOUDS BELOW 12,000 FEET WITH NO
SIGNIFICANT WEATHER AND/OR OBSTRUCTIONS TO VISIBILITY.

NOT ALL STATIONS ARE QUALITY CONTROLLED BY THE NATIONAL
WEATHER SERVICE. USE DATA WITH CAUTION...ESPECIALLY
DEWPOINT OBSERVATIONS.

SCZ027-030-031-034>040-042>050-120900-
...SOUTHEAST SOUTH CAROLINA...

CITY           SKY/WX    TMP DP  RH WIND       PRES   REMARKS
N CHARLESTON   CLOUDY    46  38  73 E7        30.17F
WATERFRONT PRK   N/A     49  42  76 NE6       30.04F
MOUNT PLEASANT PTSUNNY   46  39  76 CALM      30.17F
JOHNS ISLAND   FAIR      46  41  81 NE5       30.17F
PINOPOLIS        N/A     45  36  70 VRB3      30.11F
MONCKS CORNER  CLOUDY    41  30  65 CALM      30.18F
SUMMERVILLE    CLOUDY    45  36  70 CALM      30.19S
BEAUFORT MCAS  CLEAR     45  41  86 E3        30.17F
BEAUFORT ARPT  FAIR      45  43  93 CALM      30.16F
HILTON HEAD IS CLEAR     45  43  93 S5        30.18S
WALTERBORO     MOSUNNY   45  36  70 E3        30.18F
ALLENDALE      FAIR      39  36  87 CALM      30.15F

...SOUTHERN MIDLANDS AND PEE DEE...

CITY           SKY/WX    TMP DP  RH WIND       PRES   REMARKS
GEORGETOWN     CLOUDY    45  34  65 E5        30.20F
KINGSTREE      CLOUDY    39  32  75 N3        30.20S
ORANGEBURG     CLOUDY    44  33  65 E5        30.17F
BARNWELL       PTSUNNY   43  36  75 CALM      30.17S
AIKEN          FAIR      36  28  75 CALM      30.19S
MANNING        CLOUDY    41  32  70 CALM      30.18F
COLUMBIA       PTCLDY    33  26  75 CALM      30.18F
SUMTER         CLEAR     33  26  77 NE8       30.17F WCI  25
FLORENCE       PTCLDY    33  29  85 NE7       30.22F WCI  27
MYRTLE BEACH   CLOUDY    48  30  49 E10       30.23S
N MYRTLE BEACH CLOUDY    42  35  76 NE6       30.21F

$$

GAZ063-065-086>088-099>101-113>116-118-119-134>141-150-120900-
...SOUTHEAST GEORGIA...

CITY           SKY/WX    TMP DP  RH WIND       PRES   REMARKS
SAVANNAH ARPT  CLEAR     41  38  89 S3        30.17F
HUNTER AAF     CLEAR     41  41 100 S1        30.14F
FORT STEWART   CLOUDY    41  39  93 CALM      30.14F
STATESBORO     PTCLDY    42  40  96 CALM      30.15F
SYLVANIA       MOSUNNY   38  37  98 CALM      30.16F
CLAXTON        FAIR      39  39 100 CALM      30.15F

...CSRA...CENTRAL AND FAR SOUTHEAST GEORGIA...

CITY           SKY/WX    TMP DP  RH WIND       PRES   REMARKS
THOMSON        PTCLDY    35  34  97 CALM      30.20F
AUGUSTA-BUSH   CLOUDY    40  37  89 CALM      30.17F
AUGUSTA-DANIEL CLOUDY    46  29  51 CALM      30.16F
SWAINSBORO     FAIR      41  36  81 CALM      30.14F
VIDALIA        PTCLDY    41  37  87 CALM      30.14F
EASTMAN        CLOUDY    45  45  99 CALM      30.16F
HAZLEHURST     CLOUDY    56  53  88 SW5       30.13F
ALMA           CLOUDY    54  52  93 S6        30.16F
WAYCROSS       CLOUDY    56  55  97 SW3       30.17F
JESUP          CLOUDY    55  54  94 SW3       30.16F
BAXLEY         CLOUDY    55  54  94 CALM      30.14F
BRUNSWICK      MOCLDY    52  50  93 SW7       30.18F
SAINT SIMONS   PTCLDY    51  50  96 W5        30.18F

$$

SCZ027-028-034-036>038-045-046-048>050-GAZ119-141-120900-
...LAKE AND SUPPLEMENTAL COASTAL OBSERVATIONS...

STATION/POSITION TIME  TEMP    WIND        PRES    WAVE   SWELL
                       AIR SEA DIR/SP/G            HT/PER HT/PER/DIR
                 (UTC) (F)     (DEG/KT/KT) (MB)    (FT/S) (FT/S/D)
WINYAH BAY       0745   48      90/  6     1021.0F
LAKE MURRAY      0700   39      CALM  /  6 1021.7F
ACE BASIN NERRS  0700   45      60/  1     1022.0S
FORT PULASKI     0800   48 50  210/  3/  4 1021.6F
SAPELO ISLAND    0800   50     200/  6     1022.0S

$$

ANZ835-935-AMZ111-154-330-350-352-354-370-450-454-472-120900-
...C-MAN AND BUOY OBSERVATIONS...

STATION/POSITION TIME  TEMP    WIND        PRES    WAVE   SWELL
                       AIR SEA DIR/SP/G            HT/PER HT/PER/DIR
                 (UTC) (F)     (DEG/KT/KT) (MB)    (FT/S) (FT/S/D)
BUOY 41004       0750   60 69  150/  8/ 10 1021.4F   1/ 4   2/ 4
BUOY 41008       0750   54 52  220/ 14/ 16 1022.1F   3/ 6
FOLLY BEACH CMAN 0800   50      50/  7/  8 1021.9F
CAPERS NEARSHORE 0708   52      80/  8/ 12 1022.3F
FRIPP NEARSHORE  0700   53     220/  6/  8 1021.2F


STATION/POSITION TIME  TEMP    WIND        PRES    WAVE   SWELL
                       AIR SEA DIR/SP/G            HT/PER HT/PER/DIR
                 (UTC) (F)     (DEG/KT/KT) (MB)    (FT/S) (FT/S/D)
5E ST. MARYS GA  0721      56                N/A     2/ 5
FRYING PAN BUOY  0800   50 57   60/ 10/ 12 1023.3F
BUOY 41025       0750   40 71   10/ 10/ 14 1026.2F   3/ 8   3/ 80/ 8
CAPE LOOKOUT NC  NOT AVBL
BUOY 41002       0750   55 68  350/  8/ 16   N/A     6/ 8   5/320/ 8
BUOY 41010       0720   66 72              1024.7F
ST AUGUSTINE FL  0800   51 56  220/  3/  4 1024.1F


$$



USA.gov is the U.S. government's official web portal to all federal, state and local government web resources and services.